Location: Penzberg
(47.7615°N, 11.3159°E)
Time: 08:20:44
(UTC+01:00)

ISS - Pass Details

Date: 08 January 2018
Orbit: 402 x 407 km, 51.6° (Epoch: 24 January)

Event Time Altitude Azimuth Distance (km) Brightness Sun altitude
Exits shadow 05:05:36 14° 63° (ENE) 1,242 -0.7 -28.8°
Drops below altitude 10° 05:06:12 10° 67° (ENE) 1,471 -0.2 -28.7°
Sets 05:08:22 0° 75° (ENE) 2,333 1.1 -28.4°
